| time (UTC) | temp F | wind direction | speed MPH | gust MPH | rain 1hr in | rain 24hr in | rain mn in | humidity % | barometer mb |
| 20260510015605 | 54 | 257 | 2.0 | 3.0 | 0.00 | 0.00 | 0.00 | 71 | 1014.3 |
| 20260510015102 | 54 | 279 | 2.0 | 3.0 | 0.00 | 0.00 | 0.00 | 71 | 1014.3 |
| 20260510014557 | 54 | 233 | 0.0 | 2.0 | 0.00 | 0.00 | 0.00 | 68 | 1014.2 |
| 20260510014055 | 55 | 224 | 1.0 | 3.0 | 0.00 | 0.00 | 0.00 | 68 | 1014.0 |
| 20260510013549 | 55 | 203 | 2.0 | 2.0 | 0.00 | 0.00 | 0.00 | 68 | 1014.0 |
| 20260510013046 | 55 | 213 | 2.0 | 2.0 | 0.00 | 0.00 | 0.00 | 67 | 1014.0 |
| 20260510012539 | 55 | 195 | 1.0 | 2.0 | 0.00 | 0.00 | 0.00 | 67 | 1014.0 |
| 20260510012036 | 56 | 210 | 1.0 | 2.0 | 0.00 | 0.00 | 0.00 | 66 | 1013.9 |
| 20260510011535 | 56 | 200 | 1.0 | 2.0 | 0.00 | 0.00 | 0.00 | 66 | 1013.7 |
| 20260510011031 | 57 | 183 | 1.0 | 3.0 | 0.00 | 0.00 | 0.00 | 66 | 1013.7 |
| 20260510010528 | 57 | 196 | 0.0 | 2.0 | 0.00 | 0.00 | 0.00 | 66 | 1013.6 |
| 20260510010026 | 57 | 223 | 0.0 | 2.0 | 0.00 | 0.00 | 0.00 | 67 | 1013.4 |
| 20260510005521 | 59 | 97 | 2.0 | 2.0 | 0.00 | 0.00 | 0.00 | 65 | 1013.5 |
| 20260510005019 | 60 | 250 | 1.0 | 4.0 | 0.00 | 0.00 | 0.00 | 59 | 1013.2 |
| 20260510004516 | 61 | 299 | 3.0 | 7.0 | 0.00 | 0.00 | 0.00 | 63 | 1013.2 |
| 20260510004014 | 60 | 176 | 3.0 | 4.0 | 0.00 | 0.00 | 0.00 | 59 | 1013.2 |
| 20260510003510 | 59 | 116 | 2.0 | 3.0 | 0.00 | 0.00 | 0.00 | 63 | 1013.3 |
| 20260510003006 | 60 | 311 | 3.0 | 4.0 | 0.00 | 0.00 | 0.00 | 64 | 1013.1 |
| 20260510002502 | 60 | 186 | 2.0 | 2.0 | 0.00 | 0.00 | 0.00 | 61 | 1012.7 |
| 20260510001959 | 61 | 137 | 0.0 | 3.0 | 0.00 | 0.00 | 0.00 | 61 | 1012.6 |
| 20260510001456 | 62 | 233 | 0.0 | 1.0 | 0.00 | 0.00 | 0.00 | 54 | 1012.6 |
| 20260510000954 | 62 | 323 | 0.0 | 3.0 | 0.00 | 0.00 | 0.00 | 55 | 1012.4 |
| 20260510000449 | 64 | 105 | 0.0 | 2.0 | 0.00 | 0.00 | 0.00 | 53 | 1012.4 |
| 20260509235946 | 65 | 245 | 0.0 | 1.0 | 0.00 | 0.00 | 0.00 | 48 | 1012.2 |
| 20260509235443 | 66 | 6 | 0.0 | 0.0 | 0.00 | 0.00 | 0.00 | 51 | 1012.3 |
| 20260509234940 | 66 | 156 | 0.0 | 1.0 | 0.00 | 0.00 | 0.00 | 46 | 1012.3 |
| 20260509234436 | 67 | 263 | 0.0 | 3.0 | 0.00 | 0.00 | 0.00 | 46 | 1012.3 |
| 20260509233934 | 67 | 198 | 3.0 | 3.0 | 0.00 | 0.00 | 0.00 | 45 | 1012.2 |
| 20260509233432 | 68 | 251 | 2.0 | 3.0 | 0.00 | 0.00 | 0.00 | 44 | 1012.4 |
| 20260509232927 | 68 | 229 | 2.0 | 8.0 | 0.00 | 0.00 | 0.00 | 44 | 1012.5 |
| 20260509232425 | 69 | 194 | 3.0 | 3.0 | 0.00 | 0.00 | 0.00 | 43 | 1012.4 |
| 20260509231921 | 70 | 326 | 0.0 | 2.0 | 0.00 | 0.00 | 0.00 | 44 | 1012.4 |
| 20260509231418 | 70 | 304 | 1.0 | 2.0 | 0.00 | 0.00 | 0.00 | 44 | 1012.3 |
| 20260509230916 | 70 | 313 | 4.0 | 4.0 | 0.00 | 0.00 | 0.00 | 43 | 1012.4 |
| 20260509230412 | 69 | 328 | 4.0 | 6.0 | 0.00 | 0.00 | 0.00 | 42 | 1012.5 |
| 20260509225908 | 69 | 235 | 2.0 | 4.0 | 0.00 | 0.00 | 0.00 | 43 | 1012.4 |
| 20260509225405 | 69 | 320 | 3.0 | 4.0 | 0.00 | 0.00 | 0.00 | 43 | 1012.4 |
| 20260509224901 | 70 | 355 | 3.0 | 5.0 | 0.00 | 0.00 | 0.00 | 41 | 1012.3 |
| 20260509224357 | 70 | 345 | 5.0 | 7.0 | 0.00 | 0.00 | 0.00 | 41 | 1012.4 |
| 20260509223854 | 71 | 349 | 5.0 | 6.0 | 0.00 | 0.00 | 0.00 | 40 | 1012.3 |
| 20260509223351 | 71 | 336 | 4.0 | 4.0 | 0.00 | 0.00 | 0.00 | 40 | 1012.3 |
| 20260509222849 | 70 | 228 | 1.0 | 4.0 | 0.00 | 0.00 | 0.00 | 40 | 1012.4 |
| 20260509222348 | 70 | 339 | 3.0 | 6.0 | 0.00 | 0.00 | 0.00 | 40 | 1012.1 |
| 20260509221844 | 71 | 313 | 3.0 | 3.0 | 0.00 | 0.00 | 0.00 | 40 | 1012.1 |
| 20260509221342 | 70 | 328 | 5.0 | 6.0 | 0.00 | 0.00 | 0.00 | 41 | 1012.1 |
| 20260509220842 | 71 | 305 | 2.0 | 5.0 | 0.00 | 0.00 | 0.00 | 40 | 1012.1 |
| 20260509220339 | 71 | 294 | 2.0 | 3.0 | 0.00 | 0.00 | 0.00 | 39 | 1012.2 |
| 20260509215834 | 71 | 299 | 0.0 | 3.0 | 0.00 | 0.00 | 0.00 | 39 | 1011.9 |
| 20260509215331 | 71 | 340 | 3.0 | 4.0 | 0.00 | 0.00 | 0.00 | 39 | 1011.8 |
| 20260509214828 | 72 | 269 | 1.0 | 2.0 | 0.00 | 0.00 | 0.00 | 38 | 1012.0 |
| 20260509214325 | 71 | 285 | 3.0 | 3.0 | 0.00 | 0.00 | 0.00 | 41 | 1011.9 |
| 20260509213823 | 71 | 152 | 1.0 | 2.0 | 0.00 | 0.00 | 0.00 | 38 | 1012.0 |
| 20260509213318 | 71 | 280 | 2.0 | 3.0 | 0.00 | 0.00 | 0.00 | 38 | 1012.0 |
| 20260509212816 | 71 | 211 | 2.0 | 4.0 | 0.00 | 0.00 | 0.00 | 38 | 1011.8 |
| 20260509212313 | 71 | 208 | 2.0 | 7.0 | 0.00 | 0.00 | 0.00 | 37 | 1011.7 |
| 20260509211809 | 71 | 217 | 4.0 | 5.0 | 0.00 | 0.00 | 0.00 | 37 | 1011.7 |
| 20260509211305 | 71 | 251 | 1.0 | 5.0 | 0.00 | 0.00 | 0.00 | 37 | 1011.5 |
| 20260509210801 | 71 | 188 | 3.0 | 5.0 | 0.00 | 0.00 | 0.00 | 38 | 1011.5 |
| 20260509210259 | 72 | 346 | 2.0 | 4.0 | 0.00 | 0.00 | 0.00 | 37 | 1011.6 |
| 20260509205758 | 71 | 245 | 3.0 | 5.0 | 0.00 | 0.00 | 0.00 | 37 | 1011.5 |
| 20260509205253 | 72 | 197 | 7.0 | 7.0 | 0.00 | 0.00 | 0.00 | 37 | 1011.5 |
| 20260509204750 | 72 | 272 | 2.0 | 5.0 | 0.00 | 0.00 | 0.00 | 37 | 1011.3 |
| 20260509204246 | 72 | 173 | 1.0 | 12.0 | 0.00 | 0.00 | 0.00 | 37 | 1011.3 |
| 20260509203742 | 72 | 249 | 0.0 | 9.0 | 0.00 | 0.00 | 0.00 | 37 | 1011.3 |
| 20260509203241 | 72 | 186 | 5.0 | 9.0 | 0.00 | 0.00 | 0.00 | 36 | 1011.2 |
| 20260509202736 | 73 | 215 | 1.0 | 6.0 | 0.00 | 0.00 | 0.00 | 37 | 1011.4 |
| 20260509202232 | 72 | 245 | 3.0 | 6.0 | 0.00 | 0.00 | 0.00 | 35 | 1011.2 |
| 20260509201726 | 74 | 204 | 3.0 | 4.0 | 0.00 | 0.00 | 0.00 | 35 | 1011.2 |
| 20260509201223 | 71 | 301 | 5.0 | 6.0 | 0.00 | 0.00 | 0.00 | 36 | 1011.3 |
| 20260509200721 | 72 | 199 | 7.0 | 10.0 | 0.00 | 0.00 | 0.00 | 36 | 1011.5 |
| 20260509200221 | 72 | 223 | 4.0 | 6.0 | 0.00 | 0.00 | 0.00 | 35 | 1011.2 |
| 20260509195717 | 73 | 269 | 0.0 | 9.0 | 0.00 | 0.00 | 0.00 | 36 | 1011.1 |
| 20260509195213 | 73 | 215 | 5.0 | 8.0 | 0.00 | 0.00 | 0.00 | 35 | 1011.3 |
| 20260509194712 | 72 | 239 | 1.0 | 6.0 | 0.00 | 0.00 | 0.00 | 36 | 1011.4 |
| 20260509194209 | 73 | 199 | 5.0 | 6.0 | 0.00 | 0.00 | 0.00 | 34 | 1011.3 |
| 20260509193707 | 74 | 192 | 4.0 | 6.0 | 0.00 | 0.00 | 0.00 | 36 | 1011.3 |
| 20260509193206 | 74 | 232 | 2.0 | 13.0 | 0.00 | 0.00 | 0.00 | 35 | 1011.2 |
| 20260509192703 | 76 | 194 | 9.0 | 14.0 | 0.00 | 0.00 | 0.00 | 33 | 1011.3 |
| 20260509192158 | 74 | 170 | 2.0 | 7.0 | 0.00 | 0.00 | 0.00 | 36 | 1011.3 |
| 20260509191653 | 76 | 233 | 5.0 | 8.0 | 0.00 | 0.00 | 0.00 | 33 | 1011.7 |
| 20260509191150 | 76 | 198 | 10.0 | 12.0 | 0.00 | 0.00 | 0.00 | 35 | 1011.6 |
| 20260509190646 | 74 | 253 | 4.0 | 6.0 | 0.00 | 0.00 | 0.00 | 36 | 1011.6 |
| 20260509190143 | 74 | 207 | 3.0 | 13.0 | 0.00 | 0.00 | 0.00 | 37 | 1011.5 |
| 20260509185641 | 75 | 195 | 4.0 | 4.0 | 0.00 | 0.00 | 0.00 | 39 | 1011.6 |
| 20260509185137 | 74 | 202 | 4.0 | 6.0 | 0.00 | 0.00 | 0.00 | 39 | 1011.6 |
| 20260509184635 | 73 | 222 | 3.0 | 5.0 | 0.00 | 0.00 | 0.00 | 42 | 1011.7 |
| 20260509184131 | 70 | 308 | 3.0 | 6.0 | 0.00 | 0.00 | 0.00 | 45 | 1011.7 |
| 20260509183628 | 70 | 30 | 0.0 | 5.0 | 0.00 | 0.00 | 0.00 | 45 | 1011.8 |
| 20260509183123 | 69 | 333 | 2.0 | 5.0 | 0.00 | 0.00 | 0.00 | 46 | 1011.8 |
| 20260509182619 | 71 | 220 | 4.0 | 5.0 | 0.00 | 0.00 | 0.00 | 43 | 1011.9 |
| 20260509182116 | 72 | 205 | 4.0 | 7.0 | 0.00 | 0.00 | 0.00 | 45 | 1012.0 |
| 20260509181615 | 71 | 313 | 1.0 | 3.0 | 0.00 | 0.00 | 0.00 | 46 | 1012.0 |
| 20260509181112 | 69 | 332 | 3.0 | 5.0 | 0.00 | 0.00 | 0.00 | 48 | 1012.2 |
| 20260509180608 | 68 | 331 | 4.0 | 4.0 | 0.00 | 0.00 | 0.00 | 49 | 1012.4 |
| 20260509180105 | 70 | 354 | 2.0 | 4.0 | 0.00 | 0.00 | 0.00 | 48 | 1012.6 |
| 20260509175600 | 70 | 261 | 2.0 | 5.0 | 0.00 | 0.00 | 0.00 | 47 | 1012.6 |
| 20260509175058 | 66 | 332 | 2.0 | 6.0 | 0.00 | 0.00 | 0.00 | 53 | 1012.6 |
| 20260509174554 | 66 | 333 | 4.0 | 6.0 | 0.00 | 0.00 | 0.00 | 55 | 1012.6 |
| 20260509174049 | 64 | 357 | 4.0 | 11.0 | 0.00 | 0.00 | 0.00 | 55 | 1012.9 |
| 20260509173544 | 64 | 342 | 3.0 | 7.0 | 0.00 | 0.00 | 0.00 | 57 | 1012.7 |
| 20260509173041 | 64 | 347 | 4.0 | 7.0 | 0.00 | 0.00 | 0.00 | 56 | 1012.9 |
| 20260509172538 | 64 | 357 | 4.0 | 8.0 | 0.00 | 0.00 | 0.00 | 56 | 1013.2 |
| 20260509172033 | 64 | 313 | 5.0 | 5.0 | 0.00 | 0.00 | 0.00 | 58 | 1013.2 |
| 20260509171530 | 64 | 350 | 3.0 | 5.0 | 0.00 | 0.00 | 0.00 | 55 | 1013.1 |
| 20260509171026 | 65 | 349 | 6.0 | 7.0 | 0.00 | 0.00 | 0.00 | 56 | 1013.2 |
| 20260509170522 | 64 | 348 | 3.0 | 4.0 | 0.00 | 0.00 | 0.00 | 54 | 1013.1 |
| 20260509170018 | 64 | 357 | 2.0 | 5.0 | 0.00 | 0.00 | 0.00 | 57 | 1013.0 |
| 20260509165517 | 64 | 345 | 4.0 | 6.0 | 0.00 | 0.00 | 0.00 | 56 | 1012.9 |
| 20260509165012 | 65 | 83 | 0.0 | 1.0 | 0.00 | 0.00 | 0.00 | 57 | 1012.5 |
| 20260509164509 | 65 | 199 | 2.0 | 5.0 | 0.00 | 0.00 | 0.00 | 51 | 1012.9 |
| 20260509164004 | 67 | 287 | 1.0 | 4.0 | 0.00 | 0.00 | 0.00 | 50 | 1012.6 |
| 20260509163502 | 67 | 250 | 2.0 | 4.0 | 0.00 | 0.00 | 0.00 | 48 | 1012.7 |
| 20260509163001 | 67 | 184 | 2.0 | 4.0 | 0.00 | 0.00 | 0.00 | 48 | 1012.7 |
| 20260509162459 | 67 | 237 | 2.0 | 5.0 | 0.00 | 0.00 | 0.00 | 46 | 1012.6 |
| 20260509161955 | 68 | 234 | 2.0 | 4.0 | 0.00 | 0.00 | 0.00 | 45 | 1012.7 |
| 20260509161451 | 68 | 215 | 2.0 | 3.0 | 0.00 | 0.00 | 0.00 | 45 | 1012.7 |
| 20260509160947 | 68 | 210 | 4.0 | 6.0 | 0.00 | 0.00 | 0.00 | 46 | 1012.7 |
| 20260509160443 | 68 | 292 | 3.0 | 4.0 | 0.00 | 0.00 | 0.00 | 46 | 1012.7 |
| 20260509155939 | 69 | 213 | 3.0 | 8.0 | 0.00 | 0.00 | 0.00 | 47 | 1012.9 |
| 20260509155436 | 68 | 253 | 2.0 | 7.0 | 0.00 | 0.00 | 0.00 | 46 | 1012.6 |
| 20260509154932 | 69 | 290 | 1.0 | 3.0 | 0.00 | 0.00 | 0.00 | 47 | 1012.9 |
| 20260509154428 | 68 | 312 | 1.0 | 2.0 | 0.00 | 0.00 | 0.00 | 48 | 1012.9 |
| 20260509153926 | 67 | 339 | 2.0 | 2.0 | 0.00 | 0.00 | 0.00 | 50 | 1013.0 |
| 20260509153423 | 66 | 337 | 1.0 | 3.0 | 0.00 | 0.00 | 0.00 | 49 | 1013.2 |
| 20260509152920 | 66 | 233 | 2.0 | 4.0 | 0.00 | 0.00 | 0.00 | 48 | 1013.2 |
| 20260509152415 | 65 | 229 | 1.0 | 2.0 | 0.00 | 0.00 | 0.00 | 48 | 1013.0 |
| 20260509151913 | 65 | 203 | 2.0 | 6.0 | 0.00 | 0.00 | 0.00 | 48 | 1013.0 |
| 20260509151409 | 65 | 224 | 0.0 | 3.0 | 0.00 | 0.00 | 0.00 | 49 | 1013.1 |
| 20260509150907 | 65 | 163 | 2.0 | 3.0 | 0.00 | 0.00 | 0.00 | 49 | 1012.9 |
| 20260509150404 | 65 | 219 | 2.0 | 4.0 | 0.00 | 0.00 | 0.00 | 50 | 1012.9 |
| 20260509145903 | 65 | 180 | 3.0 | 4.0 | 0.00 | 0.00 | 0.00 | 51 | 1013.1 |
| 20260509145402 | 65 | 199 | 1.0 | 3.0 | 0.00 | 0.00 | 0.00 | 50 | 1013.4 |
| 20260509144858 | 66 | 233 | 2.0 | 5.0 | 0.00 | 0.00 | 0.00 | 49 | 1013.4 |
| 20260509144355 | 66 | 224 | 1.0 | 9.0 | 0.00 | 0.00 | 0.00 | 49 | 1013.1 |
| 20260509143852 | 66 | 158 | 3.0 | 6.0 | 0.00 | 0.00 | 0.00 | 49 | 1013.0 |
| 20260509143350 | 65 | 221 | 2.0 | 4.0 | 0.00 | 0.00 | 0.00 | 51 | 1013.2 |
| 20260509142846 | 65 | 250 | 3.0 | 8.0 | 0.00 | 0.00 | 0.00 | 52 | 1013.2 |
| 20260509142342 | 64 | 271 | 2.0 | 3.0 | 0.00 | 0.00 | 0.00 | 54 | 1013.1 |
| 20260509141838 | 64 | 181 | 2.0 | 4.0 | 0.00 | 0.00 | 0.00 | 56 | 1013.3 |
| 20260509141335 | 63 | 258 | 2.0 | 6.0 | 0.00 | 0.00 | 0.00 | 55 | 1013.4 |
| 20260509140831 | 63 | 242 | 3.0 | 8.0 | 0.00 | 0.00 | 0.00 | 54 | 1013.3 |
| 20260509140328 | 64 | 232 | 2.0 | 4.0 | 0.00 | 0.00 | 0.00 | 56 | 1013.4 |
| 20260509135827 | 63 | 185 | 3.0 | 9.0 | 0.00 | 0.00 | 0.00 | 57 | 1013.9 |
| 20260509135324 | 61 | 199 | 7.0 | 7.0 | 0.00 | 0.00 | 0.00 | 58 | 1013.8 |
| 20260509134821 | 61 | 192 | 7.0 | 10.0 | 0.00 | 0.00 | 0.00 | 59 | 1013.8 |
| 20260509134318 | 61 | 216 | 3.0 | 5.0 | 0.00 | 0.00 | 0.00 | 57 | 1013.9 |
| 20260509133815 | 60 | 221 | 3.0 | 9.0 | 0.00 | 0.00 | 0.00 | 59 | 1014.0 |
| 20260509133311 | 59 | 208 | 4.0 | 7.0 | 0.00 | 0.00 | 0.00 | 60 | 1014.1 |
| 20260509132810 | 59 | 230 | 4.0 | 6.0 | 0.00 | 0.00 | 0.00 | 60 | 1014.0 |
| 20260509132309 | 59 | 175 | 2.0 | 3.0 | 0.00 | 0.00 | 0.00 | 62 | 1014.3 |
| 20260509131805 | 59 | 201 | 3.0 | 3.0 | 0.00 | 0.00 | 0.00 | 62 | 1014.4 |
| 20260509131302 | 58 | 195 | 4.0 | 5.0 | 0.00 | 0.00 | 0.00 | 61 | 1014.2 |
| 20260509130758 | 57 | 214 | 2.0 | 4.0 | 0.00 | 0.00 | 0.00 | 62 | 1014.3 |
| 20260509130254 | 57 | 210 | 1.0 | 6.0 | 0.00 | 0.00 | 0.00 | 63 | 1014.3 |
| 20260509125750 | 57 | 209 | 1.0 | 4.0 | 0.00 | 0.00 | 0.00 | 63 | 1014.5 |
| 20260509125247 | 56 | 177 | 4.0 | 4.0 | 0.00 | 0.00 | 0.00 | 63 | 1014.0 |
| 20260509124744 | 55 | 191 | 0.0 | 4.0 | 0.00 | 0.00 | 0.00 | 64 | 1014.2 |
| 20260509124240 | 55 | 228 | 2.0 | 2.0 | 0.00 | 0.00 | 0.00 | 65 | 1014.1 |
| 20260509123738 | 54 | 241 | 0.0 | 2.0 | 0.00 | 0.00 | 0.00 | 65 | 1014.0 |
| 20260509123235 | 54 | 238 | 0.0 | 1.0 | 0.00 | 0.00 | 0.00 | 66 | 1014.0 |
| 20260509122731 | 53 | 287 | 2.0 | 2.0 | 0.00 | 0.00 | 0.00 | 67 | 1014.0 |
| 20260509122227 | 53 | 285 | 2.0 | 3.0 | 0.00 | 0.00 | 0.00 | 67 | 1014.1 |
| 20260509121724 | 53 | 337 | 0.0 | 3.0 | 0.00 | 0.00 | 0.00 | 69 | 1014.3 |
| 20260509121222 | 53 | 258 | 0.0 | 2.0 | 0.00 | 0.00 | 0.00 | 67 | 1014.3 |
| 20260509120721 | 52 | 203 | 2.0 | 3.0 | 0.00 | 0.00 | 0.00 | 67 | 1014.3 |
| 20260509120218 | 52 | 254 | 1.0 | 1.0 | 0.00 | 0.00 | 0.00 | 69 | 1014.5 |
| 20260509115715 | 51 | 265 | 0.0 | 2.0 | 0.00 | 0.00 | 0.00 | 71 | 1014.2 |
| 20260509115213 | 51 | 338 | 2.0 | 3.0 | 0.00 | 0.00 | 0.00 | 71 | 1014.4 |
| 20260509114711 | 51 | 215 | 1.0 | 3.0 | 0.00 | 0.00 | 0.00 | 71 | 1014.5 |
| 20260509114209 | 51 | 230 | 0.0 | 3.0 | 0.00 | 0.00 | 0.00 | 70 | 1014.3 |
| 20260509113708 | 51 | 261 | 1.0 | 2.0 | 0.00 | 0.00 | 0.00 | 71 | 1014.5 |
| 20260509113204 | 50 | 285 | 1.0 | 3.0 | 0.00 | 0.00 | 0.00 | 70 | 1014.5 |
| 20260509112701 | 50 | 300 | 2.0 | 2.0 | 0.00 | 0.00 | 0.00 | 73 | 1014.5 |
| 20260509112158 | 49 | 199 | 2.0 | 2.0 | 0.00 | 0.00 | 0.00 | 77 | 1014.3 |
| 20260509111655 | 49 | 230 | 2.0 | 3.0 | 0.00 | 0.00 | 0.00 | 74 | 1014.3 |
| 20260509111152 | 49 | 212 | 1.0 | 2.0 | 0.00 | 0.00 | 0.00 | 71 | 1014.3 |
| 20260509110649 | 48 | 269 | 0.0 | 2.0 | 0.00 | 0.00 | 0.00 | 76 | 1014.3 |
| 20260509110146 | 48 | 157 | 0.0 | 2.0 | 0.00 | 0.00 | 0.00 | 76 | 1014.4 |
| 20260509105644 | 48 | 206 | 0.0 | 1.0 | 0.00 | 0.00 | 0.00 | 78 | 1014.3 |
| 20260509105141 | 47 | 223 | 2.0 | 2.0 | 0.00 | 0.00 | 0.00 | 79 | 1014.5 |
| 20260509104638 | 47 | 225 | 1.0 | 3.0 | 0.00 | 0.00 | 0.00 | 78 | 1014.3 |
| 20260509104135 | 47 | 190 | 2.0 | 2.0 | 0.00 | 0.00 | 0.00 | 79 | 1014.3 |
| 20260509103633 | 48 | 207 | 3.0 | 3.0 | 0.00 | 0.00 | 0.00 | 78 | 1014.3 |
| 20260509103131 | 48 | 224 | 2.0 | 2.0 | 0.00 | 0.00 | 0.00 | 72 | 1014.2 |
| 20260509102628 | 48 | 13 | 0.0 | 2.0 | 0.00 | 0.00 | 0.00 | 75 | 1014.3 |
| 20260509102125 | 48 | 304 | 2.0 | 2.0 | 0.00 | 0.00 | 0.00 | 74 | 1014.4 |
| 20260509101621 | 47 | 145 | 0.0 | 2.0 | 0.00 | 0.00 | 0.00 | 77 | 1014.3 |
| 20260509101117 | 47 | 269 | 0.0 | 2.0 | 0.00 | 0.00 | 0.00 | 76 | 1014.5 |
| 20260509100614 | 47 | 254 | 0.0 | 2.0 | 0.00 | 0.00 | 0.00 | 76 | 1014.2 |
| 20260509100112 | 48 | 242 | 1.0 | 3.0 | 0.00 | 0.00 | 0.00 | 75 | 1014.2 |
| 20260509095608 | 47 | 349 | 0.0 | 2.0 | 0.00 | 0.00 | 0.00 | 74 | 1014.2 |
| 20260509095106 | 47 | 189 | 1.0 | 2.0 | 0.00 | 0.00 | 0.00 | 77 | 1014.4 |
| 20260509094602 | 47 | 339 | 0.0 | 3.0 | 0.00 | 0.00 | 0.00 | 76 | 1014.4 |
| 20260509094100 | 47 | 0 | 0.0 | 2.0 | 0.00 | 0.00 | 0.00 | 77 | 1014.2 |
| 20260509093558 | 47 | 333 | 0.0 | 3.0 | 0.00 | 0.00 | 0.00 | 78 | 1014.2 |
| 20260509093055 | 48 | 317 | 2.0 | 3.0 | 0.00 | 0.00 | 0.00 | 78 | 1014.4 |
| 20260509092553 | 48 | 265 | 0.0 | 2.0 | 0.00 | 0.00 | 0.00 | 79 | 1014.6 |
| 20260509092051 | 47 | 296 | 0.0 | 2.0 | 0.00 | 0.00 | 0.00 | 80 | 1014.3 |
| 20260509091548 | 47 | 271 | 0.0 | 3.0 | 0.00 | 0.00 | 0.00 | 77 | 1014.5 |
| 20260509091045 | 47 | 203 | 2.0 | 2.0 | 0.00 | 0.00 | 0.00 | 81 | 1014.6 |
| 20260509090542 | 47 | 256 | 0.0 | 2.0 | 0.00 | 0.00 | 0.00 | 80 | 1014.6 |
| 20260509090040 | 47 | 296 | 0.0 | 2.0 | 0.00 | 0.00 | 0.00 | 80 | 1014.5 |
| 20260509085537 | 47 | 310 | 1.0 | 5.0 | 0.00 | 0.00 | 0.00 | 80 | 1014.6 |
| 20260509085033 | 49 | 202 | 0.0 | 2.0 | 0.00 | 0.00 | 0.00 | 74 | 1014.4 |
| 20260509084530 | 48 | 193 | 1.0 | 4.0 | 0.00 | 0.00 | 0.00 | 74 | 1014.5 |
| 20260509084027 | 48 | 214 | 2.0 | 3.0 | 0.00 | 0.00 | 0.00 | 77 | 1014.5 |
| 20260509083525 | 48 | 226 | 1.0 | 2.0 | 0.00 | 0.00 | 0.00 | 72 | 1014.5 |
| 20260509083021 | 48 | 106 | 1.0 | 3.0 | 0.00 | 0.00 | 0.00 | 75 | 1014.6 |
| 20260509082519 | 48 | 230 | 1.0 | 2.0 | 0.00 | 0.00 | 0.00 | 77 | 1014.9 |
| 20260509082015 | 47 | 275 | 1.0 | 2.0 | 0.00 | 0.00 | 0.00 | 79 | 1014.8 |
| 20260509081513 | 47 | 297 | 1.0 | 2.0 | 0.00 | 0.00 | 0.00 | 80 | 1014.7 |
| 20260509081009 | 47 | 229 | 0.0 | 1.0 | 0.00 | 0.00 | 0.00 | 80 | 1014.9 |
| 20260509080508 | 47 | 226 | 1.0 | 2.0 | 0.00 | 0.00 | 0.00 | 78 | 1014.6 |
| 20260509080005 | 47 | 258 | 1.0 | 2.0 | 0.00 | 0.00 | 0.00 | 76 | 1014.7 |
| 20260509075502 | 47 | 213 | 1.0 | 2.0 | 0.00 | 0.00 | 0.00 | 77 | 1014.5 |
| 20260509075000 | 46 | 207 | 0.0 | 2.0 | 0.00 | 0.00 | 0.00 | 79 | 1014.9 |
| 20260509074457 | 46 | 240 | 1.0 | 2.0 | 0.00 | 0.00 | 0.00 | 80 | 1014.7 |
| 20260509073953 | 46 | 228 | 2.0 | 2.0 | 0.00 | 0.00 | 0.00 | 77 | 1014.7 |
| 20260509073450 | 46 | 201 | 1.0 | 2.0 | 0.00 | 0.00 | 0.00 | 78 | 1014.9 |
| 20260509072946 | 46 | 238 | 1.0 | 2.0 | 0.00 | 0.00 | 0.00 | 76 | 1014.8 |
| 20260509072443 | 46 | 214 | 1.0 | 2.0 | 0.00 | 0.00 | 0.00 | 78 | 1015.1 |
| 20260509071940 | 46 | 222 | 2.0 | 2.0 | 0.00 | 0.00 | 0.00 | 80 | 1015.2 |
| 20260509071436 | 46 | 213 | 2.0 | 2.0 | 0.00 | 0.00 | 0.00 | 78 | 1015.2 |
| 20260509070935 | 46 | 212 | 2.0 | 2.0 | 0.00 | 0.00 | 0.00 | 79 | 1015.1 |
| 20260509070431 | 45 | 217 | 2.0 | 2.0 | 0.00 | 0.00 | 0.00 | 79 | 1015.3 |
| 20260509065927 | 45 | 180 | 0.0 | 3.0 | 0.00 | 0.00 | 0.00 | 79 | 1015.3 |
| 20260509065423 | 45 | 217 | 2.0 | 3.0 | 0.00 | 0.00 | 0.00 | 79 | 1015.3 |
| 20260509064919 | 44 | 181 | 1.0 | 2.0 | 0.00 | 0.00 | 0.00 | 81 | 1015.3 |
| 20260509064417 | 44 | 186 | 1.0 | 2.0 | 0.00 | 0.00 | 0.00 | 82 | 1015.5 |
| 20260509063914 | 44 | 195 | 2.0 | 3.0 | 0.00 | 0.00 | 0.00 | 80 | 1015.2 |
| 20260509063409 | 44 | 187 | 2.0 | 2.0 | 0.00 | 0.00 | 0.00 | 81 | 1015.4 |
| 20260509062907 | 44 | 178 | 1.0 | 2.0 | 0.00 | 0.00 | 0.00 | 80 | 1015.3 |
| 20260509062404 | 44 | 191 | 1.0 | 2.0 | 0.00 | 0.00 | 0.00 | 80 | 1015.5 |
| 20260509061901 | 44 | 207 | 2.0 | 3.0 | 0.00 | 0.00 | 0.00 | 80 | 1015.5 |
| 20260509061359 | 44 | 174 | 2.0 | 2.0 | 0.00 | 0.00 | 0.00 | 81 | 1015.5 |
| 20260509060855 | 44 | 196 | 1.0 | 2.0 | 0.00 | 0.00 | 0.00 | 81 | 1015.3 |
| 20260509060353 | 44 | 170 | 2.0 | 2.0 | 0.00 | 0.00 | 0.00 | 81 | 1015.6 |
| 20260509055853 | 43 | 196 | 2.0 | 2.0 | 0.00 | 0.00 | 0.00 | 81 | 1015.7 |
| 20260509055349 | 43 | 169 | 1.0 | 3.0 | 0.00 | 0.00 | 0.00 | 81 | 1015.5 |
| 20260509054847 | 44 | 205 | 2.0 | 3.0 | 0.00 | 0.00 | 0.00 | 79 | 1015.5 |
| 20260509054343 | 44 | 194 | 1.0 | 2.0 | 0.00 | 0.00 | 0.00 | 79 | 1016.0 |
| 20260509053842 | 44 | 188 | 2.0 | 2.0 | 0.00 | 0.00 | 0.00 | 80 | 1015.8 |
| 20260509053338 | 44 | 185 | 2.0 | 3.0 | 0.00 | 0.00 | 0.00 | 79 | 1015.9 |
| 20260509052837 | 45 | 192 | 2.0 | 3.0 | 0.00 | 0.00 | 0.00 | 80 | 1015.7 |
| 20260509052334 | 46 | 207 | 3.0 | 3.0 | 0.00 | 0.00 | 0.00 | 77 | 1016.0 |
| 20260509051832 | 46 | 207 | 2.0 | 3.0 | 0.00 | 0.00 | 0.00 | 75 | 1015.8 |
| 20260509051330 | 46 | 195 | 2.0 | 3.0 | 0.00 | 0.00 | 0.00 | 76 | 1015.8 |
| 20260509050826 | 45 | 184 | 2.0 | 3.0 | 0.00 | 0.00 | 0.00 | 77 | 1015.8 |
| 20260509050323 | 45 | 205 | 2.0 | 3.0 | 0.00 | 0.00 | 0.00 | 77 | 1015.6 |
| 20260509045820 | 46 | 206 | 2.0 | 2.0 | 0.00 | 0.00 | 0.00 | 77 | 1015.6 |
| 20260509045317 | 46 | 180 | 1.0 | 2.0 | 0.00 | 0.00 | 0.00 | 77 | 1015.6 |
| 20260509044814 | 46 | 211 | 1.0 | 2.0 | 0.00 | 0.00 | 0.00 | 76 | 1015.9 |
| 20260509044311 | 46 | 210 | 0.0 | 2.0 | 0.00 | 0.00 | 0.00 | 76 | 1015.9 |
| 20260509043808 | 46 | 231 | 2.0 | 3.0 | 0.00 | 0.00 | 0.00 | 75 | 1016.0 |
| 20260509043303 | 46 | 217 | 2.0 | 3.0 | 0.00 | 0.00 | 0.00 | 75 | 1015.8 |
| 20260509042800 | 47 | 201 | 2.0 | 3.0 | 0.00 | 0.00 | 0.00 | 73 | 1015.7 |
| 20260509042256 | 47 | 183 | 2.0 | 2.0 | 0.00 | 0.00 | 0.00 | 74 | 1015.7 |
| 20260509041753 | 47 | 187 | 2.0 | 3.0 | 0.00 | 0.00 | 0.00 | 73 | 1015.7 |
| 20260509041250 | 47 | 194 | 2.0 | 3.0 | 0.00 | 0.00 | 0.00 | 75 | 1015.7 |
| 20260509040749 | 47 | 219 | 1.0 | 3.0 | 0.00 | 0.00 | 0.00 | 73 | 1015.7 |
| 20260509040245 | 47 | 209 | 2.0 | 3.0 | 0.00 | 0.00 | 0.00 | 73 | 1015.6 |
| 20260509035742 | 47 | 194 | 1.0 | 3.0 | 0.00 | 0.00 | 0.00 | 71 | 1015.4 |
| 20260509035239 | 47 | 191 | 2.0 | 2.0 | 0.00 | 0.00 | 0.00 | 71 | 1015.6 |
| 20260509034736 | 47 | 191 | 2.0 | 4.0 | 0.00 | 0.00 | 0.00 | 70 | 1015.5 |
| 20260509034233 | 47 | 175 | 2.0 | 2.0 | 0.00 | 0.00 | 0.00 | 72 | 1015.5 |
| 20260509033730 | 47 | 198 | 2.0 | 3.0 | 0.00 | 0.00 | 0.00 | 71 | 1015.5 |
| 20260509033227 | 47 | 189 | 2.0 | 2.0 | 0.00 | 0.00 | 0.00 | 70 | 1015.6 |
| 20260509032724 | 47 | 196 | 2.0 | 2.0 | 0.00 | 0.00 | 0.00 | 71 | 1015.6 |
| 20260509032221 | 47 | 208 | 3.0 | 3.0 | 0.00 | 0.00 | 0.00 | 71 | 1015.6 |
| 20260509031719 | 48 | 269 | 0.0 | 2.0 | 0.00 | 0.00 | 0.00 | 68 | 1015.6 |
| 20260509031216 | 48 | 213 | 1.0 | 2.0 | 0.00 | 0.00 | 0.00 | 67 | 1015.7 |
| 20260509030714 | 48 | 196 | 2.0 | 2.0 | 0.00 | 0.00 | 0.00 | 67 | 1015.5 |
| 20260509030211 | 48 | 213 | 1.0 | 2.0 | 0.00 | 0.00 | 0.00 | 67 | 1015.6 |
| 20260509025707 | 48 | 219 | 2.0 | 2.0 | 0.00 | 0.00 | 0.00 | 68 | 1015.5 |
| 20260509025203 | 48 | 203 | 2.0 | 2.0 | 0.00 | 0.00 | 0.00 | 67 | 1015.7 |
| 20260509024659 | 48 | 196 | 1.0 | 2.0 | 0.00 | 0.00 | 0.00 | 68 | 1015.5 |
| 20260509024155 | 48 | 199 | 2.0 | 3.0 | 0.00 | 0.00 | 0.00 | 67 | 1015.5 |
| 20260509023653 | 49 | 170 | 1.0 | 1.0 | 0.00 | 0.00 | 0.00 | 67 | 1015.5 |
| 20260509023150 | 49 | 218 | 0.0 | 2.0 | 0.00 | 0.00 | 0.00 | 63 | 1015.4 |
| 20260509022646 | 49 | 212 | 0.0 | 2.0 | 0.00 | 0.00 | 0.00 | 65 | 1015.5 |
| 20260509022144 | 49 | 237 | 0.0 | 1.0 | 0.00 | 0.00 | 0.00 | 63 | 1015.8 |
| 20260509021640 | 50 | 211 | 0.0 | 2.0 | 0.00 | 0.00 | 0.00 | 62 | 1015.7 |
| 20260509021137 | 50 | 187 | 2.0 | 2.0 | 0.00 | 0.00 | 0.00 | 64 | 1015.6 |
| 20260509020636 | 50 | 216 | 1.0 | 3.0 | 0.00 | 0.00 | 0.00 | 64 | 1015.4 |
| 20260509020132 | 51 | 223 | 2.0 | 2.0 | 0.00 | 0.00 | 0.00 | 62 | 1015.6 |